Regional Weather Roundup
Issued by NWS

Home | Current Version | Previous Version | Graphics & Text | Print | Product List | Glossary On
Versions: 1 2 3 4 5 6 7 8 9 10 11 12 13 14 15 16 17 18 19 20 21 22 23 24 25 26 27 28 29 30 31 32 33 34 35 36 37 38 39 40 41 42 43 44 45 46 47 48 49 50
000
ASUS43 KMKX 052120
RWRWI

WISCONSIN REGIONAL WEATHER ROUNDUP
NATIONAL WEATHER SERVICE MILWAUKEE/SULLIVAN WI
300 PM CST THU MAR 05 2015

NOTE: "FAIR" INDICATES FEW OR NO CLOUDS BELOW 12,000 FEET WITH NO
SIGNIFICANT WEATHER AND/OR OBSTRUCTIONS TO VISIBILITY.

WIZ001-002-006>008-014>016-023>028-052200-
NORTHWEST WISCONSIN

CITY           SKY/WX    TMP DP  RH WIND       PRES   REMARKS
SUPERIOR ARPT  SUNNY     15  -7  37 SW14      30.36F WCI   0
ASHLAND        SUNNY     13 -10  35 SW9G20    30.36F WCI   1
HAYWARD        SUNNY      9 -11  40 SW13      30.35F WCI  -7
SIREN          SUNNY     12  -7  42 SW9       30.40S WCI   0
CUMBERLAND     SUNNY      9  -8  47 SW12      30.38F WCI  -6
RICE LAKE      SUNNY      9  -8  45 SW8       30.42F WCI  -3
CHETEK         SUNNY      9  -8  44 SW7       30.42S WCI  -2
LADYSMITH      SUNNY     11 -12  34 SW8       30.39S WCI   0
EAU CLAIRE     SUNNY      9  -8  46 SW9       30.44F WCI  -4
MENOMONIE      SUNNY     12  -6  43 SW8       30.44F WCI   1
NEW RICHMOND   SUNNY     13  -4  46 SW9       30.42F WCI   0
OSCEOLA        SUNNY     14  -4  43 SW8       30.45F WCI   3
$$

WIZ003>005-009-010-017-018-052200-
NORTH CENTRAL WISCONSIN

CITY           SKY/WX    TMP DP  RH WIND       PRES   REMARKS
MANITOWISH WTR SUNNY     11 -12  34 W10       30.28F WCI  -2
ARBOR VITAE    SUNNY     13 -10  36 W5        30.28F WCI   5
WOODRUFF       SUNNY     13 -10  36 W5        30.28F WCI   5
RHINELANDER    SUNNY     12  -8  40 SW10      30.29F WCI  -1
EAGLE RIVER    SUNNY     12 -13  31 SW9G16    30.27F WCI  -1
LAND O LAKES   SUNNY     14 -11  31 W7        30.27S WCI   4
PHILLIPS       SUNNY     10  -9  42 SW10      30.32S WCI  -4
TOMAHAWK       SUNNY     12 -12  32 W5        30.32S WCI   5
MEDFORD        SUNNY      6  -8  50 SW8       30.35S WCI  -6
MERRILL        SUNNY     10  -8  44 SW12      30.35S WCI  -4
$$

WIZ029-030-035-036-043>047-052200-
CENTRAL WISCONSIN

CITY           SKY/WX    TMP DP  RH WIND       PRES   REMARKS
WAUSAU         SUNNY      8  -8  48 W10       30.37F WCI  -6
MOSINEE        SUNNY      9  -6  52 W8        30.39F WCI  -4
MARSHFIELD     SUNNY     10  -8  44 W7        30.39S WCI  -1
STEVENS POINT  SUNNY      9  -8  45 W9        30.40S WCI  -4
WAUPACA        SUNNY     17  -6  35 W8        30.42F WCI   7
WAUTOMA        SUNNY     16  -5  39 VRB7      30.43F WCI   6
WISC RAPIDS    SUNNY     14  -7  38 W9        30.42S WCI   2
CAMP DOUGLAS   SUNNY     14  -4  44 W10       30.43F WCI   1
$$

WIZ011>013-019>022-031-037>040-048>050-052200-
NORTHEAST WISCONSIN

CITY           SKY/WX    TMP DP  RH WIND       PRES   REMARKS
ANTIGO         SUNNY      9  -8  47 W12       30.32S WCI  -6
SHAWANO        SUNNY     17  -8  33 W9        30.40S WCI   5
OCONTO         SUNNY     15  -5  40 W10       30.40S WCI   3
STURGEON BAY   SUNNY     12  -4  48 W9        30.41S WCI   0
GREEN BAY      SUNNY     14  -4  44 W12       30.42S WCI   0
MANITOWOC      SUNNY     16  -2  45 W13       30.43F WCI   2
APPLETON       SUNNY     14  -8  37 W13       30.41F WCI   0
CLINTONVILLE   SUNNY     14  -8  37 W9        30.41S WCI   2
OSHKOSH        SUNNY     14  -4  44 W7        30.42F WCI   4
$$

WIZ032>034-041-042-053>061-052200-
SOUTHWEST WISCONSIN

CITY           SKY/WX    TMP DP  RH WIND       PRES   REMARKS
LA CROSSE      MIX PCPN  16  -2  45 NW10      30.48F WCI   4
SPARTA         SUNNY     14  -5  42 W5        30.47S WCI   6
VIROQUA        SUNNY     12  -4  47 W9        30.43R WCI   0
BOSCOBEL       SUNNY     15  -6  39 W7        30.50S WCI   5
PRAIRIE DU CHI SUNNY     12  -6  44 W8        30.51S WCI   0
PLATTEVILLE    SUNNY     11  -4  50 W7        30.47S WCI   1
$$

WIZ056-057-062-063-064-067-068-052200-
SOUTH CENTRAL WISCONSIN

CITY           SKY/WX    TMP DP  RH WIND       PRES   REMARKS
REEDSBURG      SUNNY     14  -4  45 W6        30.44S WCI   5
BARABOO/DELLS  SUNNY     14  -6  40 W5        30.43F WCI   6
LONE ROCK      SUNNY     15  -6  39 W9        30.47F WCI   3
MINERAL POINT  SUNNY     14  -6  41 SW9       30.44S WCI   2
MADISON        SUNNY     15  -4  42 VRB6      30.45F WCI   6
MIDDLETON      SUNNY     17  -7  33 W6        30.45S WCI   9
WATERTOWN      SUNNY     15  -2  47 W7        30.45S WCI   5
MONROE         SUNNY     14   0  52 W12       30.45S WCI   0
JANESVILLE     SUNNY     16  -6  38 W12       30.47S WCI   3
$$

WIZ051-052-058>065-066-070>072-052200-
SOUTHEAST WISCONSIN

CITY           SKY/WX    TMP DP  RH WIND       PRES   REMARKS
MILWAUKEE      SUNNY     16  -6  37 NW12      30.46S WCI   3
WAUKESHA       SUNNY     10  -8  44 NW12      30.46S WCI  -4
MILWAUKEE/TIMM SUNNY     14  -8  37 W6        30.46S WCI   5
RACINE         SUNNY     14  -5  42 W10       30.48S WCI   1
BURLINGTON     SUNNY     13  -6  43 W7        30.47S WCI   2
KENOSHA        SUNNY     13  -4  46 W10       30.47R WCI   0
FOND DU LAC    SUNNY     14  -5  42 W9        30.43F WCI   2
SHEBOYGAN      SUNNY     13  -3  49 W13       30.43F WCI  -2
WEST BEND      SUNNY     14  -6  41 W9        30.43S WCI   2
JUNEAU         SUNNY     14  -4  44 W7        30.44F WCI   4
$$

LSZ147-162-052200-
LAKE SUPERIOR

STATION/POSITION TIME  TEMP    WIND        PRES    WAVE
                       AIR SEA DIR/SP/G            HT/PER
                 (UTC) (F)     (DEG/KT/KT) (MB)    (FT/S)
DEVILS ISLAND    2100   11     240/ 21/ 25 1028.9F
PORT WING        2000   12     270/ 10/ 13 1028.8
SAXON HARBOR     2000   14     220/  5/ 10 1028.4F
$$

LMZ867-665-643>646-052200-
LAKE MICHIGAN

STATION/POSITION TIME  TEMP    WIND        PRES    WAVE
                       AIR SEA DIR/SP/G            HT/PER
                 (UTC) (F)     (DEG/KT/KT) (MB)    (FT/S)
NORTHPORT PIER   2018   14     260/  3/ 11 1029.1F
SISTER BAY       2013   23     250/ 11/ 13   N/A
KEWAUNEE LAKESHO 2100   13     270/  7/ 13 1029.2F
SHEBOYGAN LAKESH 2100   13     280/  7/ 10 1032.8S
PORT WASHINGTON  2040   15     320/  9/ 14 1031.8F
MILWAUKEE LAKESH 2100   14     280/  9/ 14   N/A
KENOSHA   LAKESH 2100   13     260/ 10/ 13 1032.2R
$$

TC  - TEMPERATURE IN CELSIUS
VSB - VISIBILITY IN STATUTE MILES
WCI - WIND CHILL INDEX
HX  - HEAT INDEX



USA.gov is the U.S. government's official web portal to all federal, state and local government web resources and services.